Location: Celina Division
(33.3022°N, 96.7580°W)
Time: 06:58:44
(UTC+00:00)

OAO 2 Rocket - Pass Details

Date: 08 December 2021
Orbit: 676 x 745 km, 35.0° (Epoch: 17 January)

Event Time Altitude Azimuth Distance (km) Brightness Sun altitude
Exits shadow 12:04:45 15° 248° (WSW) 1,883 5.1 -15.1°
Maximum altitude 12:09:04 77° 163° (SSE) 740 3.5 -14.2°
Drops below altitude 10° 12:14:11 10° 79° (ENE) 2,178 6.8 -13.2°
Sets 12:16:34 0° 77° (ENE) 3,085 7.7 -12.8°
